User: anonymous   Login
Location: Brede
(50.9167°N, 0.6000°E)
Time: 08:56:27
(UTC+00:00)
Language:

CZ-4 R/B - Orbit

View from above orbital plane
View from above orbital plane
View from above satellite
View from above satellite

Ground track
Ground track

The orbit data is extracted from the following two-line orbital elements,

1 28059U 03049C   20293.86191410 +.00000047 +00000-0 +22902-4 0  9996
2 28059 098.4829 211.7712 0051102 117.5995 243.0403 14.52614168900871
Epoch (UTC): 19 October 2020 20:41:09
Eccentricity: 0.0051102
inclination: 98.4829°
perigee height: 681 km
apogee height: 753 km
right ascension of ascending node: 211.7712°
argument of perigee: 117.5995°
revolutions per day: 14.52614168
mean anomaly at epoch: 243.0403°
orbit number at epoch: 90087

The dashed part of the orbit path shows where the satellite is in the earth's shadow,  

DLR